Location: Florida Caverns State Park
(30.8073°N, 85.2161°W)
Time: 14:03:35
(UTC-04:00)

Tiangong 2 - Visible Passes

Search period start: 22 March 2019 00:00
Search period end: 01 April 2019 00:00
Orbit: 379 x 390 km, 42.8° (Epoch: 22 March)

Date Brightness Start Highest point End Pass type
(mag) Time Alt. Az. Time Alt. Az. Time Alt. Az.
22 Mar 1.8 06:51:57 10° NW 06:55:03 51° NNE 06:58:10 10° ESE visible
23 Mar 2.9 05:55:33 28° NNE 05:55:33 28° NNE 05:58:17 10° E visible
24 Mar 0.9 06:31:35 34° WNW 06:32:48 73° SW 06:35:58 10° SE visible
25 Mar 3.9 05:35:34 17° ESE 05:35:34 17° ESE 05:36:24 10° ESE visible
25 Mar 3.0 07:07:52 10° W 07:09:48 15° SW 07:11:45 10° S visible
26 Mar 3.0 06:11:59 20° S 06:11:59 20° S 06:13:19 10° SSE visible
27 Mar 3.5 21:39:02 10° SW 21:39:49 16° SW 21:39:49 16° SW visible
28 Mar 2.3 20:40:05 10° SSW 20:42:40 24° SE 20:44:06 17° E visible
29 Mar 1.3 21:16:37 10° WSW 21:19:44 66° NNW 21:20:30 45° NNE visible
30 Mar 1.2 20:17:09 10° SW 20:20:13 54° SE 20:23:17 10° ENE visible
30 Mar 3.6 21:54:40 10° WNW 21:56:41 20° NNW 21:56:41 20° NNW visible
31 Mar 2.6 20:54:32 10° W 20:57:25 33° NNW 21:00:18 10° NE visible
